Probability
11 17 26 27 14 3 0 0 0 0 0 0 0 0 0 0 0 0 0 0 0 0 0 0 0 0 0 0 0 0 0 0 0 0 0 0 0 0 1 2 3 3 1 0 0 0 0 0 0
13 21 30 23 8 1 0 0 0 0 0 0 0 0 0 0 0 0 0 0 0 0 0 0 0 0 0 0 0 0 0 0 0 0 0 0 1 1 1 2 3 3 2 0 0 0 0 0 0
20 27 26 13 2 0 0 0 0 0 0 0 0 0 0 0 0 0 0 0 0 0 0 0 0 0 0 0 0 0 0 0 0 0 0 1 1 1 2 3 3 3 1 0 0 0 0 0 0
33 29 16 4 0 0 0 0 0 0 0 0 0 0 0 0 0 0 0 0 0 0 0 0 0 0 0 0 0 0 0 0 0 0 1 1 2 2 2 3 3 2 1 0 0 0 0 0 0
34 23 8 1 0 0 0 0 0 0 0 1 1 0 0 1 1 0 0 0 0 0 0 0 0 0 0 0 0 0 0 0 0 0 1 2 2 2 2 2 2 1 0 0 0 0 0 0 0
23 12 2 0 0 0 0 0 0 0 0 1 2 1 1 2 2 1 0 0 1 1 0 0 0 0 0 0 0 0 0 0 0 0 1 2 2 2 1 1 1 0 0 0 0 0 0 0 0
11 5 0 0 1 0 0 0 0 0 0 1 2 2 3 4 3 1 0 1 1 1 0 0 0 0 0 0 0 0 0 0 0 0 0 1 1 1 0 0 0 0 0 0 0 0 0 0 0
4 2 0 0 0 0 0 0 0 0 1 1 2 3 3 4 3 1 1 2 1 1 0 0 0 1 0 0 0 0 0 0 0 0 0 0 0 0 0 0 0 0 0 0 0 0 0 0 0
1 0 0 0 0 0 0 0 0 0 1 2 3 3 3 3 3 2 2 2 1 0 0 0 0 0 0 0 0 0 0 0 0 0 0 0 0 0 0 0 0 0 0 0 0 0 0 0 0
0 0 0 0 0 0 0 0 0 0 1 3 3 3 3 3 3 3 3 3 1 0 0 0 1 1 1 0 0 0 1 1 1 0 0 0 0 0 0 0 1 1 2 1 1 1 1 0 1
0 0 0 0 0 0 0 0 0 0 1 2 3 3 3 3 4 5 5 5 3 1 1 1 2 3 2 1 0 0 1 2 2 1 0 0 0 0 0 0 1 2 2 2 2 2 1 1 1
0 0 0 0 0 0 0 0 0 0 1 3 3 3 4 4 5 6 7 7 6 4 2 2 3 4 4 3 2 1 2 3 3 2 1 0 0 0 0 0 1 1 1 1 1 1 1 0 1
0 0 0 0 0 0 0 0 0 1 2 3 4 5 6 7 9 9 8 7 6 5 3 2 3 5 6 5 5 3 2 3 3 2 1 0 0 0 0 0 0 0 0 0 0 0 1 1 1
0 0 0 0 0 0 0 0 1 2 3 5 6 7 9 11 12 12 10 8 6 5 4 3 5 8 9 8 8 6 3 3 3 1 0 0 0 0 1 1 1 0 0 0 1 1 2 2 2
0 0 0 0 0 0 0 0 1 2 4 6 8 11 13 15 15 13 11 8 6 6 6 6 7 10 11 10 8 7 5 4 3 2 1 1 1 2 3 3 2 2 1 1 2 3 3 3 3
0 0 0 0 0 0 1 1 1 2 4 7 9 13 18 20 19 15 11 9 8 9 10 8 8 11 12 10 8 7 7 6 5 5 5 3 3 4 6 5 3 3 3 3 3 3 3 3 3
0 0 0 0 0 0 0 2 3 3 4 7 9 13 21 25 24 18 12 11 12 15 15 12 10 12 13 12 10 8 8 8 8 9 8 6 5 6 7 6 4 3 3 3 3 3 3 4 4
0 0 0 0 0 0 0 3 6 5 4 7 9 13 21 27 27 22 16 14 17 19 21 18 15 15 15 14 13 11 10 11 13 12 10 8 7 7 8 7 6 4 3 3 3 3 4 4 4
0 0 0 0 0 0 0 3 6 6 4 6 10 14 21 27 29 27 22 20 21 24 26 25 22 20 19 17 16 15 14 14 17 18 14 11 9 10 9 8 7 5 4 4 5 5 5 4 4
0 0 0 0 0 0 0 2 4 5 4 5 8 14 21 29 32 31 27 24 26 31 31 29 28 27 23 19 17 16 15 16 19 20 19 16 14 13 11 10 9 8 8 7 8 7 7 6 5
0 0 0 0 0 0 0 1 3 4 4 5 7 12 19 28 34 32 27 24 28 34 34 31 32 31 26 21 17 15 17 17 18 20 20 20 19 17 14 13 12 11 11 11 10 10 10 8 7
0 0 0 0 0 0 0 2 4 5 4 5 7 10 16 25 32 32 27 23 25 29 31 32 34 31 26 20 17 17 18 19 20 20 21 23 23 20 18 17 15 14 14 14 13 12 13 12 10
0 0 0 0 0 0 0 1 3 4 4 6 7 10 16 23 30 33 31 25 21 22 25 31 35 32 25 20 17 18 19 21 22 22 23 25 25 22 21 20 17 16 16 15 14 14 16 16 15
0 0 0 0 0 0 0 1 2 2 3 4 5 9 15 22 30 34 33 29 23 21 24 32 37 34 27 23 21 21 21 21 22 22 22 23 23 23 23 23 21 17 16 15 14 14 16 18 19
0 0 0 0 0 0 0 1 2 1 1 2 3 8 16 24 31 33 32 31 28 26 28 34 38 35 30 28 28 27 24 23 24 24 21 18 19 22 25 27 24 19 14 14 14 14 15 17 19
0 0 0 0 0 0 1 2 2 1 1 2 3 8 17 26 31 33 33 33 32 31 32 36 39 37 33 32 34 33 29 25 23 23 21 19 19 22 25 27 25 21 15 14 15 15 15 17 18
0 0 0 0 0 0 2 3 3 2 2 3 5 10 18 25 30 32 33 34 33 32 34 36 40 40 36 35 38 38 33 25 20 22 24 24 24 25 24 24 25 22 17 16 16 15 15 16 16
0 0 0 0 0 0 1 3 5 4 3 3 6 12 18 24 28 30 31 32 31 32 33 36 40 42 39 38 39 39 36 28 23 24 27 29 30 29 26 24 24 22 20 19 17 16 15 14 14
0 0 0 0 0 0 1 2 5 7 5 4 8 14 20 25 29 31 30 28 28 30 33 35 39 40 39 38 39 40 39 35 31 29 31 33 34 33 29 25 24 23 21 19 17 16 15 13 12
0 0 0 0 0 0 1 2 4 7 7 6 9 14 21 27 32 33 31 26 26 29 33 36 38 38 38 38 40 42 42 39 36 35 35 35 35 35 31 26 23 22 20 18 17 16 15 13 12
Wind_Speed
9 10 9 6 3 6 14 14 13 13 14 14 14 14 18 16 12 11 9 12 14 15 13 13 12 12 12 12 12 12 12 12 13 13 13 13 14 14 15 15 15 15 15 14 14 13 13 14 14
9 12 9 5 3 9 13 13 13 12 12 13 15 17 18 18 16 12 11 11 13 14 13 12 12 12 12 12 12 12 12 12 12 13 13 13 14 14 14 15 15 14 14 14 13 13 13 13 12
11 15 7 2 11 12 13 12 11 11 11 12 16 16 15 13 14 12 11 12 13 14 13 12 12 11 11 11 12 12 12 13 12 13 13 13 13 14 14 14 14 14 14 13 13 13 12 11 11
8 7 2 8 16 15 13 11 10 11 11 12 13 13 14 14 13 13 12 12 13 14 14 12 11 11 11 11 11 12 12 12 13 13 13 13 13 13 13 13 13 13 13 13 12 12 11 10 9
9 4 6 13 15 14 12 12 11 11 13 16 17 15 15 14 14 13 11 11 12 13 14 12 12 11 11 11 11 11 12 12 12 12 12 12 12 12 12 12 12 12 12 12 11 11 10 10 8
6 1 8 12 14 14 13 12 12 13 14 15 16 16 13 11 11 11 10 10 11 13 14 12 12 11 11 11 11 11 11 11 11 11 12 12 11 11 11 12 12 12 12 12 11 10 9 8 6
2 4 11 13 12 13 13 12 12 12 12 12 14 15 12 11 11 10 10 10 10 12 13 12 11 10 11 11 10 10 10 10 10 10 10 11 10 10 11 11 11 11 10 10 10 9 9 7 5
2 4 12 13 13 14 12 12 13 13 11 9 10 11 12 11 10 11 10 9 9 9 10 10 11 10 10 9 10 10 9 9 8 8 9 9 10 10 10 10 9 10 9 9 9 8 8 6 4
4 6 11 13 12 12 11 13 13 11 11 12 14 16 14 12 11 10 9 9 7 8 6 7 9 8 8 9 10 9 8 7 7 6 8 7 5 7 7 9 9 9 8 8 8 8 7 6 5
7 10 14 13 13 12 11 12 12 11 12 14 15 14 13 11 9 9 9 9 7 6 6 6 7 6 5 6 6 5 5 6 4 3 5 4 3 4 7 9 9 8 8 7 7 7 6 5 4
11 12 12 13 13 13 11 11 11 11 12 13 14 13 12 12 9 9 8 9 8 5 5 7 7 4 4 4 4 2 2 3 3 2 2 2 3 4 5 4 5 5 6 5 6 6 4 3 2
11 11 11 12 11 11 11 11 12 12 13 14 13 13 11 10 9 8 8 8 7 5 6 6 6 5 4 3 2 2 2 2 2 2 1 1 1 1 2 2 3 3 2 2 3 2 3 3 2
10 10 11 11 11 11 11 12 13 14 15 14 13 12 11 10 9 8 8 8 7 5 6 6 6 5 3 2 1 2 2 2 3 2 2 2 1 1 2 1 1 1 2 2 1 1 2 1 1
8 10 9 10 10 10 10 11 12 13 14 14 12 11 10 10 10 9 8 7 6 6 5 5 5 5 3 2 0 1 1 2 2 2 2 1 1 1 1 1 0 0 1 1 2 2 2 1 1
6 8 7 8 9 9 9 9 11 13 12 12 12 11 10 10 9 8 8 7 6 6 6 4 5 5 4 2 1 1 1 2 2 2 2 1 1 1 0 1 1 0 1 1 1 1 1 1 1
4 6 5 4 5 8 5 6 11 13 12 11 11 11 11 9 9 8 8 6 6 6 5 3 3 5 4 2 1 0 1 2 2 1 2 2 2 1 0 0 1 1 0 1 1 1 1 1 1
6 6 7 7 5 7 6 8 12 13 12 10 11 11 11 10 10 9 9 8 7 6 5 3 3 4 3 3 2 1 1 1 1 1 1 2 2 1 1 1 1 1 0 1 1 1 1 1 0
5 3 6 7 8 7 7 10 12 12 12 12 11 11 11 11 10 10 9 9 7 7 5 4 4 3 2 2 2 1 1 1 1 1 2 2 2 2 1 1 1 1 1 1 0 0 1 1 1
4 5 2 5 7 5 7 10 10 10 11 11 11 11 11 11 11 10 9 9 8 7 6 4 3 3 2 1 1 2 2 2 1 2 3 2 1 1 1 0 1 1 1 1 1 1 1 1 2
7 4 2 3 5 3 5 4 7 9 9 10 11 11 12 12 12 11 10 9 9 7 6 5 4 4 3 2 2 1 2 1 2 2 3 2 1 1 2 1 1 1 1 1 1 1 1 2 2
7 5 4 3 3 4 5 4 4 9 9 10 11 12 13 14 13 12 11 10 9 9 7 6 5 4 3 3 2 2 2 0 1 2 2 2 1 1 0 1 1 1 1 1 1 1 2 2 2
8 5 4 4 5 2 2 3 6 10 10 9 10 11 13 14 14 13 12 10 10 9 8 6 5 4 3 3 2 2 2 2 2 2 2 2 2 1 1 1 1 0 1 0 1 1 1 2 2
7 7 6 7 7 6 6 3 4 7 9 10 9 10 12 14 14 13 13 11 10 10 10 8 6 5 3 2 2 1 1 1 2 2 2 2 2 2 1 1 1 1 1 0 1 1 1 1 1
7 7 8 8 7 8 6 3 5 6 10 11 10 11 12 13 13 12 12 11 10 10 10 10 8 6 5 4 3 2 2 1 2 2 2 2 2 2 2 2 1 0 0 0 1 1 1 1 1
9 9 6 5 5 5 6 3 5 7 8 12 13 12 13 14 14 13 12 12 11 11 10 10 9 7 6 5 3 3 3 2 2 1 2 1 1 2 2 1 1 0 0 0 1 1 1 1 1
11 11 8 5 4 4 5 4 3 7 6 9 13 13 13 14 13 13 12 11 11 11 10 10 10 8 7 5 4 3 3 2 2 2 1 1 1 2 2 2 1 0 0 0 0 1 1 1 1
12 11 10 8 8 5 3 4 3 6 7 9 12 11 13 13 13 13 13 11 11 11 10 10 10 8 7 7 5 4 3 2 1 2 2 1 1 2 2 2 2 1 0 1 1 0 1 1 0
13 10 7 6 5 7 5 3 1 4 6 9 11 11 12 12 12 12 13 13 11 10 9 8 9 8 7 6 6 6 5 4 2 1 2 2 1 2 1 1 1 1 1 1 0 0 1 1 1
13 13 9 7 7 6 3 1 2 5 5 5 9 10 10 11 12 11 11 12 11 11 10 9 8 8 7 6 5 4 5 4 4 2 2 1 1 1 1 1 1 1 1 1 0 0 0 1 1
14 14 12 8 7 7 4 2 4 5 5 7 10 10 10 11 11 11 12 11 10 11 11 10 9 8 7 6 5 5 4 4 3 3 2 2 2 1 1 1 1 1 1 1 1 0 1 1 1
Wind_Direction
204 221 222 241 233 74 67 66 65 66 66 62 60 65 61 57 69 88 103 94 99 103 100 90 80 77 75 74 74 74 75 79 80 82 86 89 92 95 97 97 97 98 99 100 103 108 110 109 108
234 229 229 241 76 74 70 67 67 68 74 76 72 72 72 71 83 98 100 98 98 98 96 89 86 82 78 77 77 77 77 81 85 87 89 91 93 95 98 100 100 101 102 104 105 107 110 111 113
252 256 256 104 69 72 77 75 76 77 78 84 77 66 65 80 86 98 108 107 98 96 97 94 89 85 82 81 81 81 81 82 86 90 90 91 93 96 99 100 101 102 104 106 106 107 111 112 114
253 239 218 73 72 75 82 90 88 87 81 81 83 78 70 75 92 104 112 110 110 110 103 100 95 90 87 85 84 83 84 85 87 90 90 91 93 97 99 100 102 103 105 106 106 109 111 113 117
243 246 87 78 79 80 81 85 86 85 82 82 86 89 86 87 99 107 110 114 113 109 108 108 104 98 93 90 88 88 88 89 89 91 95 95 96 97 99 102 104 105 105 104 104 109 111 114 117
255 197 86 81 83 83 84 85 85 86 92 97 102 101 96 104 109 112 114 112 110 114 112 115 114 107 100 96 94 94 94 94 95 97 99 100 101 102 103 105 107 107 108 109 109 112 116 120 123
257 69 89 92 88 84 82 86 88 86 87 96 107 106 112 116 116 112 105 105 109 110 119 131 130 121 111 105 103 101 101 102 103 105 107 110 111 109 108 108 110 112 116 118 119 119 122 125 134
35 77 89 93 93 89 84 85 88 88 81 93 110 110 120 120 119 115 112 105 105 111 118 131 130 134 136 124 119 118 116 117 119 121 124 126 125 121 122 118 117 119 122 125 127 130 133 141 157
57 72 78 85 94 101 104 98 92 90 89 78 81 100 115 124 122 121 116 107 96 97 104 114 120 130 134 131 133 140 137 137 143 149 154 155 151 136 136 119 127 130 134 137 141 149 154 160 181
75 73 77 89 99 106 106 109 113 108 98 93 95 105 121 126 126 123 119 115 106 106 111 101 97 103 110 113 131 146 147 147 177 155 164 168 137 127 120 131 141 146 150 155 165 170 175 191 191
82 85 91 94 101 108 113 113 116 113 112 114 118 124 127 129 124 119 116 113 113 117 108 109 101 95 92 100 127 121 118 139 149 131 128 131 138 141 132 151 155 165 170 178 168 184 202 201 194
90 92 98 102 107 110 104 98 97 99 107 118 123 129 129 128 124 122 117 111 113 112 107 99 102 90 69 64 91 125 127 135 122 124 136 115 104 124 134 148 164 173 173 174 169 180 181 171 168
107 108 109 111 109 103 99 99 99 102 111 121 129 131 129 127 124 119 116 112 114 111 109 100 101 96 91 69 343 103 96 102 109 112 101 114 121 109 115 110 148 179 159 159 161 146 139 128 129
120 117 118 122 121 118 112 112 111 114 123 130 133 134 134 127 125 121 119 120 123 121 116 114 120 121 121 123 335 56 104 115 101 107 106 90 97 89 99 134 175 39 118 128 146 147 144 134 115
140 126 134 147 139 123 122 121 118 127 136 139 143 145 138 134 129 128 126 129 129 128 121 122 138 133 142 147 197 145 124 126 118 115 118 103 90 86 90 146 165 185 133 105 92 108 129 151 163
189 158 172 160 148 138 148 129 132 144 149 149 151 151 147 144 142 137 132 133 128 121 119 131 128 125 133 138 161 38 80 95 111 132 138 145 123 119 15 184 151 145 184 126 137 173 131 144 149
232 201 162 166 175 148 152 147 149 160 156 157 160 156 152 152 152 146 145 142 131 121 121 124 106 118 137 149 156 163 123 96 100 113 119 135 140 150 193 165 116 185 197 152 210 135 156 175 162
249 222 160 163 162 154 145 144 156 168 161 164 166 160 156 156 157 152 149 144 138 134 134 133 130 124 146 145 154 152 149 140 140 128 108 115 147 163 205 156 147 206 191 188 152 111 211 183 199
253 263 178 151 147 160 148 147 162 170 174 166 165 163 159 156 153 151 153 150 147 142 140 140 143 138 145 143 161 168 169 173 157 150 131 131 152 139 164 339 157 203 212 196 196 191 211 219 189
239 248 208 167 147 179 130 132 167 178 184 169 164 165 160 155 152 153 156 154 151 147 146 148 150 149 153 159 174 176 169 180 155 126 118 136 154 185 183 190 228 210 190 199 224 217 224 246 209
253 233 225 218 193 194 166 155 208 191 181 174 170 168 162 160 157 158 162 160 157 152 154 155 151 151 161 168 175 176 146 126 95 124 132 155 161 190 163 160 200 247 191 197 210 230 239 241 252
266 265 252 252 255 250 225 155 214 203 180 180 175 169 162 160 157 159 162 163 161 155 153 145 144 145 151 163 179 174 157 158 158 152 144 144 142 166 141 144 157 235 233 214 248 209 259 250 267
258 271 267 268 261 249 224 175 207 209 180 174 168 174 164 159 158 161 163 163 161 158 155 150 144 145 149 162 168 171 157 161 151 139 133 140 144 147 123 123 146 206 218 223 274 301 284 273 274
254 254 261 268 271 266 257 208 168 188 188 170 172 180 162 156 156 158 161 158 160 159 156 154 149 153 157 166 171 165 176 161 124 129 137 167 156 142 127 126 136 155 228 240 262 271 267 262 265
236 246 252 256 261 273 308 290 149 181 184 164 163 167 158 154 154 159 166 158 161 161 159 155 152 160 166 172 175 167 181 172 157 169 163 170 132 126 120 120 129 179 213 190 282 256 269 266 271
233 247 252 262 277 294 331 301 160 145 136 145 150 156 154 155 156 160 159 159 163 163 159 156 156 162 169 172 169 164 169 180 180 178 168 137 130 117 125 131 141 151 309 301 293 288 280 265 272
242 240 255 258 249 253 227 222 176 135 139 144 140 145 153 155 156 159 161 165 165 163 159 159 157 163 170 171 165 161 162 164 157 144 167 144 118 133 129 136 143 153 187 296 319 351 327 346 306
245 254 264 264 277 274 220 195 144 145 173 156 146 149 151 156 163 167 164 166 163 160 155 155 157 162 167 169 172 166 167 168 169 150 120 111 107 92 109 112 126 139 136 86 74 43 342 18 7
225 240 252 274 276 277 283 320 131 187 184 170 149 147 154 157 158 162 162 160 158 158 158 157 157 161 164 165 162 155 158 165 163 156 148 137 129 130 134 138 122 102 73 66 95 140 28 50 39
243 242 239 242 261 277 280 246 220 195 192 163 144 142 155 153 156 157 157 156 159 163 163 161 161 164 164 164 158 153 152 155 160 150 141 143 142 140 127 141 126 125 99 73 46 34 66 57 46